Diademe D-1C

operational
NORAD ID: 2674 Int'l Des: 1967-011 Owner: CNES Country: F
LEO

Diademe D-1Cについて

説明を読み込み中...

リアルタイム位置

3D地球を読み込み中...

次回通過

高度履歴

Altitude vs Time

uPlot chart will show altitude changes over time

軌道要素

1 02674U 67011A 26061.33469052 .00009436 00000-0 10205-2 0 9993
2 02674 39.9163 168.5057 0208393 233.5909 124.5492 14.73556046 74335
Epoch: Mar 2, 2026 • Age: 38 hours

現在のステータス

高度 538.5 km
速度 7.66 km/s
衛星直下点 -14.24°S, 15.78°W
タイプ other

大規模コンステレーション

Loading constellations...